When you browse on this site, cookies collect data to enhance your experience and personalize the content and advertising you see.
Visit our Privacy Policy to learn more. By continuing to use the site, you agree to this use of cookies and data.
  • In Hungary
  • List of Countries
  • For 7 days
  • Water Temperature
  • Satellite Maps
  • Weather Map
  • News
  • Weather Widgets
  • user-avatar
    Login

    Hourly Weather Tuzy

    Today, 27 May, Monday

    Time Temperature Precipitation Wind Pressure Humidity
    00:00 +10°C° 0.1 mm 4 mps 746 mmHg 80%
    01:00 +10°C° 0.1 mm 4 mps 746 mmHg 83%
    02:00 +10°C° 0.1 mm 4 mps 746 mmHg 85%
    03:00 +10°C° 0 mm 4 mps 746 mmHg 87%
    04:00 +10°C° 0 mm 4 mps 746 mmHg 89%
    05:00 +8°C° 0 mm 4 mps 746 mmHg 92%
    06:00 +11°C° 0 mm 4 mps 746 mmHg 85%
    07:00 +12°C° 0 mm 5 mps 746 mmHg 78%
    08:00 +13°C° 0 mm 5 mps 747 mmHg 71%
    09:00 +14°C° 0 mm 5 mps 747 mmHg 67%
    10:00 +15°C° 0 mm 5 mps 747 mmHg 62%
    11:00 +16°C° 0 mm 5 mps 747 mmHg 58%
    12:00 +15°C° 0.1 mm 5 mps 747 mmHg 67%
    13:00 +14°C° 0.1 mm 4 mps 747 mmHg 76%
    14:00 +13°C° 0.1 mm 3 mps 747 mmHg 84%
    15:00 +13°C° 0.7 mm 3 mps 747 mmHg 88%
    16:00 +14°C° 0.7 mm 3 mps 747 mmHg 91%
    17:00 +14°C° 0.7 mm 3 mps 747 mmHg 95%
    18:00 +14°C° 0 mm 3 mps 747 mmHg 94%
    19:00 +14°C° 0 mm 3 mps 748 mmHg 94%
    20:00 +14°C° 0 mm 3 mps 748 mmHg 94%
    21:00 +14°C° 0 mm 3 mps 748 mmHg 95%
    22:00 +13°C° 0 mm 3 mps 748 mmHg 95%
    23:00 +13°C° 0 mm 3 mps 749 mmHg 96%

    Tomorrow, 28 May, Tuesday

    Time Temperature Precipitation Wind Pressure Humidity
    00:00 +12°C° 0 mm 3 mps 749 mmHg 97%
    01:00 +13°C° 0 mm 2 mps 749 mmHg 97%
    02:00 +12°C° 0 mm 2 mps 750 mmHg 98%
    03:00 +12°C° 0 mm 2 mps 750 mmHg 98%
    04:00 +12°C° 0 mm 2 mps 750 mmHg 98%
    05:00 +12°C° 0 mm 2 mps 750 mmHg 98%
    06:00 +14°C° 0 mm 2 mps 750 mmHg 93%
    07:00 +15°C° 0 mm 2 mps 750 mmHg 88%
    08:00 +17°C° 0 mm 2 mps 750 mmHg 83%
    09:00 +18°C° 0.1 mm 2 mps 750 mmHg 81%
    10:00 +19°C° 0.1 mm 2 mps 750 mmHg 78%
    11:00 +20°C° 0.1 mm 2 mps 750 mmHg 75%
    12:00 +19°C° 1.9 mm 2 mps 749 mmHg 81%
    13:00 +18°C° 1.9 mm 2 mps 749 mmHg 87%
    14:00 +17°C° 1.9 mm 3 mps 748 mmHg 94%
    15:00 +18°C° 0.2 mm 3 mps 748 mmHg 93%
    16:00 +18°C° 0.2 mm 3 mps 747 mmHg 93%
    17:00 +19°C° 0.2 mm 3 mps 747 mmHg 93%
    18:00 +19°C° 0.2 mm 3 mps 747 mmHg 93%
    19:00 +19°C° 0.2 mm 3 mps 747 mmHg 94%
    20:00 +19°C° 0.2 mm 3 mps 747 mmHg 94%
    21:00 +19°C° 1 mm 3 mps 747 mmHg 95%
    22:00 +18°C° 1 mm 3 mps 747 mmHg 96%
    23:00 +18°C° 1 mm 3 mps 747 mmHg 96%

    Day after tomorrow, 29 May, Wednesday

    Time Temperature Precipitation Wind Pressure Humidity
    00:00 +18°C° 0.5 mm 3 mps 747 mmHg 96%
    01:00 +18°C° 0.5 mm 3 mps 748 mmHg 96%
    02:00 +18°C° 0.5 mm 3 mps 748 mmHg 96%
    03:00 +17°C° 0 mm 3 mps 748 mmHg 96%
    04:00 +17°C° 0 mm 3 mps 748 mmHg 97%
    05:00 +17°C° 0 mm 3 mps 748 mmHg 97%
    06:00 +17°C° 0.5 mm 3 mps 748 mmHg 97%
    07:00 +18°C° 0.5 mm 3 mps 749 mmHg 96%
    08:00 +18°C° 0.5 mm 3 mps 749 mmHg 96%
    09:00 +18°C° 0.6 mm 3 mps 749 mmHg 95%
    10:00 +18°C° 0.6 mm 3 mps 750 mmHg 95%
    11:00 +18°C° 0.6 mm 3 mps 750 mmHg 94%
    12:00 +17°C° 0.9 mm 3 mps 751 mmHg 93%
    13:00 +16°C° 0.9 mm 3 mps 751 mmHg 92%
    14:00 +16°C° 0.9 mm 3 mps 752 mmHg 91%
    15:00 +16°C° 0.2 mm 2 mps 752 mmHg 89%
    16:00 +17°C° 0.2 mm 2 mps 752 mmHg 87%
    17:00 +17°C° 0.2 mm 2 mps 752 mmHg 84%
    18:00 +16°C° 0 mm 1 mps 753 mmHg 85%
    19:00 +16°C° 0 mm 1 mps 753 mmHg 87%
    20:00 +15°C° 0 mm 1 mps 753 mmHg 88%
    21:00 +14°C° 0 mm 1 mps 754 mmHg 86%
    22:00 +13°C° 0 mm 2 mps 754 mmHg 85%
    23:00 +12°C° 0 mm 2 mps 754 mmHg 83%

    30 May, Thursday

    Time Temperature Precipitation Wind Pressure Humidity
    00:00 +10°C° 0 mm 2 mps 755 mmHg 80%
    01:00 +9°C° 0 mm 2 mps 755 mmHg 78%
    02:00 +9°C° 0 mm 2 mps 755 mmHg 75%
    03:00 +9°C° 0 mm 2 mps 756 mmHg 78%
    04:00 +8°C° 0 mm 3 mps 756 mmHg 81%
    05:00 +8°C° 0 mm 3 mps 756 mmHg 84%
    06:00 +10°C° 0 mm 3 mps 756 mmHg 78%
    07:00 +11°C° 0 mm 3 mps 756 mmHg 73%
    08:00 +13°C° 0 mm 3 mps 757 mmHg 67%
    09:00 +15°C° 0 mm 2 mps 757 mmHg 64%
    10:00 +17°C° 0 mm 2 mps 756 mmHg 62%
    11:00 +18°C° 0 mm 2 mps 756 mmHg 59%
    12:00 +20°C° 0 mm 1 mps 756 mmHg 56%
    13:00 +21°C° 0 mm 1 mps 756 mmHg 52%
    14:00 +21°C° 0 mm 1 mps 756 mmHg 49%
    15:00 +21°C° 0 mm 1 mps 756 mmHg 50%
    16:00 +21°C° 0 mm 1 mps 756 mmHg 50%
    17:00 +21°C° 0 mm 1 mps 756 mmHg 51%
    18:00 +20°C° 0 mm 1 mps 756 mmHg 58%
    19:00 +18°C° 0 mm 1 mps 756 mmHg 64%
    20:00 +15°C° 0 mm 1 mps 756 mmHg 71%
    21:00 +14°C° 0 mm 1 mps 756 mmHg 72%
    22:00 +13°C° 0 mm 1 mps 756 mmHg 73%
    23:00 +12°C° 0 mm 1 mps 756 mmHg 74%

    31 May, Friday

    Time Temperature Precipitation Wind Pressure Humidity
    00:00 +11°C° 0 mm 1 mps 756 mmHg 75%
    01:00 +11°C° 0 mm 1 mps 756 mmHg 75%
    02:00 +10°C° 0 mm 1 mps 756 mmHg 76%
    03:00 +11°C° 0 mm 1 mps 756 mmHg 76%
    04:00 +11°C° 0 mm 1 mps 756 mmHg 77%
    05:00 +11°C° 0 mm 1 mps 756 mmHg 77%
    06:00 +13°C° 0 mm 1 mps 755 mmHg 74%
    07:00 +15°C° 0 mm 1 mps 755 mmHg 71%
    08:00 +18°C° 0 mm 1 mps 755 mmHg 67%
    09:00 +20°C° 0 mm 1 mps 754 mmHg 64%
    10:00 +21°C° 0 mm 1 mps 754 mmHg 60%
    11:00 +23°C° 0 mm 1 mps 754 mmHg 56%
    12:00 +23°C° 0 mm 1 mps 753 mmHg 56%
    13:00 +24°C° 0 mm 2 mps 753 mmHg 56%
    14:00 +24°C° 0 mm 2 mps 753 mmHg 56%
    15:00 +24°C° 0 mm 2 mps 752 mmHg 59%
    16:00 +24°C° 0 mm 2 mps 752 mmHg 62%
    17:00 +24°C° 0 mm 2 mps 752 mmHg 65%
    18:00 +23°C° 0.1 mm 2 mps 752 mmHg 73%
    19:00 +21°C° 0.1 mm 1 mps 751 mmHg 81%
    20:00 +20°C° 0.1 mm 1 mps 751 mmHg 88%
    21:00 +19°C° 0 mm 1 mps 751 mmHg 90%
    22:00 +19°C° 0 mm 1 mps 751 mmHg 93%
    23:00 +18°C° 0 mm 1 mps 751 mmHg 95%

    1 June, Saturday

    Time Temperature Precipitation Wind Pressure Humidity
    00:00 +18°C° 0 mm 1 mps 751 mmHg 95%
    01:00 +16°C° 0 mm 1 mps 751 mmHg 95%
    02:00 +16°C° 0 mm 1 mps 751 mmHg 95%
    03:00 +16°C° 0.2 mm 2 mps 751 mmHg 95%
    04:00 +14°C° 0.2 mm 3 mps 752 mmHg 94%
    05:00 +14°C° 0.2 mm 4 mps 752 mmHg 93%
    06:00 +12°C° 0.9 mm 4 mps 753 mmHg 93%
    07:00 +10°C° 0.9 mm 4 mps 753 mmHg 92%
    08:00 +8°C° 0.9 mm 4 mps 754 mmHg 92%
    09:00 +9°C° 0 mm 5 mps 755 mmHg 81%
    10:00 +11°C° 0 mm 6 mps 756 mmHg 71%
    11:00 +12°C° 0 mm 7 mps 756 mmHg 61%
    12:00 +14°C° 0 mm 6 mps 757 mmHg 58%
    13:00 +14°C° 0 mm 6 mps 757 mmHg 56%
    14:00 +14°C° 0 mm 6 mps 758 mmHg 53%
    15:00 +14°C° 0 mm 6 mps 758 mmHg 53%
    16:00 +14°C° 0 mm 6 mps 759 mmHg 53%
    17:00 +13°C° 0 mm 5 mps 759 mmHg 54%
    18:00 +12°C° 0 mm 5 mps 760 mmHg 58%
    19:00 +11°C° 0 mm 4 mps 760 mmHg 62%
    20:00 +9°C° 0 mm 3 mps 760 mmHg 66%
    21:00 +8°C° 0 mm 3 mps 761 mmHg 69%
    22:00 +7°C° 0 mm 3 mps 762 mmHg 72%
    23:00 +5°C° 0 mm 2 mps 762 mmHg 75%
    Show more